星链-31140 (STARLINK-31140 )

导读

STARLINK-31140是美国太空探索技术公司(SpaceX)星链星座中的一员,于2024年1月14日发射升空,归入星链低轨互联网星座组网,为全球偏远地区、信号覆盖薄弱区域及高需求场景提供高速卫星互联网接入服务,推进星链星座全球宽带互联覆盖能力建设。

基本信息
目录编号:
58767
目录名称:
STARLINK-31140
国际标识:
2024-011C
轨道中心:
EARTH
卫星名称:
星链-31140
卫星全名:
星链-31140 (STARLINK-31140 )
卫星状态:
在轨 (已飞行886 天)
发射日期:
2024-01-14 UTC
国别 :
美国 (US)
星等 :
--
轨道信息
数据来源 国际轨道数据
星历时间: 2026-06-18T06:00:02+0800
9小时前
查看轨道信息
半长轴: 6840.839km
偏心率: 0.0001042
轨道倾角: 53.159°
近地点辐角 94.247°
升交点赤经 267.913°
平近点角 84.929°
近地点: 461.989km
远地点: 463.415km
周期: 93.848分钟
每日圈数: 15.344006
详细信息
固有亮度:
5
最大亮度:
0.3
卫星平台:
Starlink v2.0 mini
覆盖范围:
全球
运营商:
太空探索技术公司
运营商所在国:
美国
制造商(研发单位):
太空探索技术公司
制造商所在国:
美国
使用方式:
暂无
卫星简介
星链(Starlink)计划是由太空探索技术公司(SpaceX)提出的一个巨型低轨卫星互联网星座项目,计划在2019年至2024年间在太空搭建由约1.2万颗卫星组成的“星链”网络,其中1584颗将部署在地球上空550千米处的近地轨道,并从2020年开始工作。该卫星仍在工作。
2D轨道图
3D轨道图
轨道高度分析图
轨道倾角分析图
轨道综合分析图
查看轨道综合分析图